{"data":{"norad_id":48657,"epoch":"2026-05-25T04:33:51.996960Z","epoch_age_seconds":68655,"freshness":"FRESH","line1":"1 48657U 21044V   26145.19018515  .00001134  00000+0  48289-4 0  9992","line2":"2 48657  53.1588 118.1481 0001313  88.1970 271.9181 15.31707028275543","mean_motion":15.31707028,"eccentricity":0.0001313,"inclination_deg":53.1588,"raan_deg":118.1481,"arg_perigee_deg":88.197,"mean_anomaly_deg":271.9181,"bstar":4.8289e-5,"rev_number":27554,"period_min":94.012756596165,"perigee_km":469.81979040473,"apogee_km":471.6183000022,"semimajor_km":6848.8560452035,"source":"CELESTRAK","updated_at":"2026-05-25T13:38:16.756594Z"}}